{"data":{"norad_id":43799,"epoch":"2026-09-19T09:10:31.572768Z","epoch_age_seconds":114728,"freshness":"FRESH","line1":"1 43799U 18099AT  26262.38230987  .00005124  00000+0  17871-3 0  9995","line2":"2 43799  97.3791 314.7978 0037824 313.1713  46.6367 15.29391356428305","mean_motion":15.29391356,"eccentricity":0.0037824,"inclination_deg":97.3791,"raan_deg":314.7978,"arg_perigee_deg":313.1713,"mean_anomaly_deg":46.6367,"bstar":0.00017871,"rev_number":42830,"period_min":94.15510257402,"perigee_km":451.69934306271,"apogee_km":503.56185379129,"semimajor_km":6855.767598427,"source":"CELESTRAK","updated_at":"2026-09-20T09:00:47.447336Z"}}